Форум фильмов, сериалов и мультфильмов

Объявление

Информация о пользователе

Привет, Гость! Войдите или зарегистрируйтесь.



Игры

Тем 301 страница 330 из 2173

Тема Ответов Просмотров Последнее сообщение
0 10 19.12.2018 21:49:32  jockers gamers
302 Yet Another Tower Defence-PLAZA  jockers gamers
0 8 19.12.2018 21:45:18  jockers gamers
0 4 19.12.2018 21:07:51  jockers gamers
304 The Subject v1.1.4 (2018) PLAZA  jockers gamers
0 8 19.12.2018 21:04:29  jockers gamers
0 6 19.12.2018 21:04:12  jockers gamers
0 15 18.12.2018 22:29:26  jockers gamers
0 4 18.12.2018 22:26:16  jockers gamers
0 4 18.12.2018 22:16:10  jockers gamers
0 8 18.12.2018 22:12:36  jockers gamers
0 5 18.12.2018 22:05:24  jockers gamers
0 9 18.12.2018 22:01:59  jockers gamers
312 Kabounce v1.28 (2018) PLAZA  jockers gamers
0 5 18.12.2018 21:57:11  jockers gamers
313 Led It Rain (2018) PLAZA  jockers gamers
0 11 18.12.2018 21:53:54  jockers gamers
314 Telekinetic (2018) PLAZA  jockers gamers
0 10 18.12.2018 21:49:57  jockers gamers
0 11 18.12.2018 21:46:22  jockers gamers
316 The Subject v1.1.4 (2018) PLAZA  jockers gamers
0 3 18.12.2018 21:18:54  jockers gamers
317 The Subject v1.1.4 (2018) PLAZA  jockers gamers
0 4 18.12.2018 21:17:50  jockers gamers
5 59 18.12.2018 07:10:00  HaTali
319 Hyss (2018) CODEX  jockers gamers
0 7 18.12.2018 01:53:32  jockers gamers
320 BELOW Hotfix (2018) SpaceX  jockers gamers
0 5 18.12.2018 01:46:02  jockers gamers
0 7 18.12.2018 01:41:04  jockers gamers
0 6 18.12.2018 01:38:33  jockers gamers
0 6 18.12.2018 01:36:56  jockers gamers
0 5 18.12.2018 01:18:23  jockers gamers
0 26 18.12.2018 01:15:26  jockers gamers
0 8 18.12.2018 01:10:19  jockers gamers
0 6 18.12.2018 01:05:52  jockers gamers
0 12 18.12.2018 01:03:31  jockers gamers
329 Lucius 3 (2018) SpaceX  jockers gamers
0 12 17.12.2018 22:15:54  jockers gamers
0 7 17.12.2018 22:10:09  jockers gamers